IBE22IA LEPA-LEMD

Flight info

Callsign IBE22IA
Flight time N/A
Altitude 31000
Route EPAMA N733 PRADO
Aircraft A320/M-SDE3FGHIRWY/LB1

Departure

Time 2026-05-05 17:22
Airport Palma de Mallorca Airport (LEPA)

Arrival

Time N/A
Airport Adolfo Suárez Madrid–Barajas Airport (LEMD)
Time Latitude Longitude Altitude Speed Heading
2026-05-05 16:57 39.54535 2.73332 37 ft 0 kts 345°
2026-05-05 17:07 39.54536 2.73332 37 ft 0 kts 345°
2026-05-05 17:07 39.54532 2.73333 35 ft 2 kts 345°
2026-05-05 17:07 39.54516 2.73339 37 ft 2 kts 345°
2026-05-05 17:07 39.54499 2.73341 37 ft 2 kts 352°
2026-05-05 17:08 39.54489 2.73341 36 ft 0 kts 31°
2026-05-05 17:08 39.54490 2.73341 37 ft 0 kts 24°
2026-05-05 17:08 39.54498 2.73348 37 ft 0 kts 39°
2026-05-05 17:12 39.54510 2.73362 37 ft 5 kts 44°
2026-05-05 17:12 39.54528 2.73394 37 ft 4 kts 54°
2026-05-05 17:12 39.54557 2.73458 35 ft 13 kts 59°
2026-05-05 17:13 39.54608 2.73560 36 ft 13 kts 58°
2026-05-05 17:13 39.54654 2.73654 35 ft 12 kts 57°
2026-05-05 17:13 39.54697 2.73747 35 ft 15 kts 61°
2026-05-05 17:13 39.54750 2.73871 34 ft 16 kts 61°
2026-05-05 17:14 39.54821 2.73988 33 ft 17 kts 21°
2026-05-05 17:14 39.54929 2.73977 33 ft 15 kts 39°
2026-05-05 17:14 39.55015 2.73978 33 ft 16 kts 331°
2026-05-05 17:14 39.55113 2.73900 33 ft 17 kts 329°
2026-05-05 17:15 39.55213 2.73821 33 ft 17 kts 328°
2026-05-05 17:15 39.55315 2.73741 34 ft 18 kts 329°
2026-05-05 17:15 39.55438 2.73643 34 ft 23 kts 327°
2026-05-05 17:15 39.55574 2.73535 34 ft 20 kts 328°
2026-05-05 17:16 39.55666 2.73532 34 ft 15 kts 45°
2026-05-05 17:16 39.55728 2.73662 35 ft 17 kts 59°
2026-05-05 17:16 39.55785 2.73782 35 ft 16 kts 57°
2026-05-05 17:16 39.55866 2.73945 37 ft 25 kts 61°
2026-05-05 17:17 39.55953 2.74133 38 ft 24 kts 58°
2026-05-05 17:17 39.56024 2.74244 39 ft 12 kts 34°
2026-05-05 17:17 39.56110 2.74317 39 ft 15 kts 34°
2026-05-05 17:17 39.56146 2.74349 40 ft 0 kts 32°
2026-05-05 17:19 39.56149 2.74351 40 ft 2 kts 32°
2026-05-05 17:19 39.56210 2.74360 38 ft 11 kts 328°
2026-05-05 17:19 39.56241 2.74289 39 ft 9 kts 250°
2026-05-05 17:19 39.56237 2.74280 39 ft 0 kts 238°
2026-05-05 17:21 39.56155 2.74108 38 ft 59 kts 239°
2026-05-05 17:21 39.55826 2.73414 33 ft 119 kts 239°
2026-05-05 17:21 39.55318 2.72342 247 ft 145 kts 239°
2026-05-05 17:22 39.54261 2.70161 1443 ft 153 kts 237°
2026-05-05 17:22 39.53627 2.68913 1778 ft 174 kts 237°
2026-05-05 17:22 39.52921 2.67516 2017 ft 197 kts 238°
2026-05-05 17:22 39.52141 2.65979 2507 ft 211 kts 238°
2026-05-05 17:23 39.51331 2.64391 3333 ft 211 kts 239°
2026-05-05 17:23 39.50511 2.62781 3834 ft 215 kts 239°
2026-05-05 17:23 39.49696 2.61175 4030 ft 214 kts 239°
2026-05-05 17:23 39.48881 2.59566 4839 ft 212 kts 239°
2026-05-05 17:24 39.48070 2.57970 5677 ft 212 kts 239°
2026-05-05 17:24 39.47254 2.56366 6473 ft 214 kts 239°
2026-05-05 17:24 39.46431 2.54751 7228 ft 216 kts 238°
2026-05-05 17:24 39.45606 2.53123 8003 ft 217 kts 240°
2026-05-05 17:25 39.45149 2.51234 8450 ft 235 kts 271°
2026-05-05 17:25 39.45374 2.49781 8672 ft 254 kts 285°
2026-05-05 17:25 39.46092 2.46787 9448 ft 269 kts 282°
2026-05-05 17:25 39.46557 2.44422 10191 ft 274 kts 279°
2026-05-05 17:26 39.46978 2.41911 10452 ft 297 kts 278°
2026-05-05 17:26 39.47352 2.39203 10858 ft 311 kts 275°
2026-05-05 17:26 39.47630 2.36406 11558 ft 315 kts 273°
2026-05-05 17:26 39.47858 2.33576 12322 ft 317 kts 272°
2026-05-05 17:27 39.48070 2.30722 13085 ft 320 kts 271°
2026-05-05 17:27 39.48283 2.27847 13818 ft 322 kts 271°
2026-05-05 17:27 39.48506 2.24953 14487 ft 324 kts 271°
2026-05-05 17:27 39.48736 2.22082 15151 ft 326 kts 272°
2026-05-05 17:28 39.48974 2.19155 15814 ft 328 kts 272°
2026-05-05 17:28 39.49215 2.16216 16492 ft 329 kts 272°
2026-05-05 17:28 39.49456 2.13260 17161 ft 331 kts 272°
2026-05-05 17:28 39.49700 2.10285 17824 ft 333 kts 272°
2026-05-05 17:29 39.49944 2.07302 18426 ft 335 kts 272°
2026-05-05 17:29 39.50186 2.04300 18978 ft 336 kts 272°
2026-05-05 17:29 39.50428 2.01276 19517 ft 339 kts 272°
2026-05-05 17:29 39.50672 1.98235 20055 ft 341 kts 272°
2026-05-05 17:30 39.50918 1.95166 20585 ft 343 kts 272°
2026-05-05 17:30 39.51165 1.92092 21104 ft 345 kts 272°
2026-05-05 17:30 39.51413 1.88994 21653 ft 346 kts 272°
2026-05-05 17:30 39.51660 1.85885 22191 ft 348 kts 272°
2026-05-05 17:31 39.51909 1.82759 22705 ft 349 kts 272°
2026-05-05 17:31 39.52159 1.79616 23202 ft 351 kts 272°
2026-05-05 17:31 39.52410 1.76457 23647 ft 353 kts 272°
2026-05-05 17:31 39.52658 1.73281 24049 ft 355 kts 272°
2026-05-05 17:32 39.52907 1.70088 24455 ft 357 kts 272°
2026-05-05 17:32 39.53157 1.66887 24857 ft 358 kts 272°
2026-05-05 17:32 39.53408 1.63664 25246 ft 360 kts 272°
2026-05-05 17:32 39.53656 1.60430 25629 ft 362 kts 271°
2026-05-05 17:33 39.53903 1.57177 26011 ft 363 kts 271°
2026-05-05 17:33 39.54151 1.53914 26384 ft 365 kts 271°
2026-05-05 17:33 39.54403 1.50634 26819 ft 366 kts 271°
2026-05-05 17:33 39.54654 1.47356 27237 ft 366 kts 271°
2026-05-05 17:34 39.54904 1.44075 27621 ft 367 kts 271°
2026-05-05 17:34 39.55156 1.40769 27985 ft 369 kts 271°
2026-05-05 17:34 39.55405 1.37460 28350 ft 370 kts 271°
2026-05-05 17:34 39.55654 1.34130 28703 ft 372 kts 271°
2026-05-05 17:35 39.55899 1.30827 29048 ft 374 kts 271°
2026-05-05 17:35 39.56149 1.27472 29386 ft 375 kts 271°
2026-05-05 17:35 39.56402 1.24098 29707 ft 377 kts 271°
2026-05-05 17:35 39.56654 1.20709 30011 ft 379 kts 271°
2026-05-05 17:36 39.56911 1.17260 30268 ft 380 kts 271°
2026-05-05 17:36 39.57163 1.13843 30543 ft 382 kts 271°
2026-05-05 17:36 39.57410 1.10457 30824 ft 382 kts 271°
2026-05-05 17:36 39.57661 1.07023 30893 ft 370 kts 271°
2026-05-05 17:37 39.57901 1.03762 30894 ft 358 kts 271°
2026-05-05 17:37 39.58362 0.97402 30895 ft 353 kts 270°
2026-05-05 17:38 39.58809 0.91077 30895 ft 352 kts 270°
2026-05-05 17:38 39.59250 0.84781 30895 ft 352 kts 270°
2026-05-05 17:39 39.59689 0.78465 30897 ft 352 kts 270°
2026-05-05 17:39 39.60128 0.72130 30884 ft 352 kts 270°
2026-05-05 17:40 39.60570 0.65794 30878 ft 353 kts 270°
2026-05-05 17:40 39.61007 0.59454 30874 ft 353 kts 270°
2026-05-05 17:41 39.61434 0.53147 30876 ft 353 kts 270°
2026-05-05 17:41 39.61863 0.46808 30874 ft 353 kts 270°
2026-05-05 17:42 39.62286 0.40461 30874 ft 353 kts 270°
2026-05-05 17:42 39.62705 0.34114 30884 ft 353 kts 270°
2026-05-05 17:43 39.63119 0.27754 30881 ft 354 kts 270°
2026-05-05 17:43 39.63536 0.21397 30880 ft 354 kts 270°
2026-05-05 17:44 39.63951 0.15030 30884 ft 354 kts 270°
2026-05-05 17:44 39.64367 0.08662 30884 ft 354 kts 270°
2026-05-05 17:45 39.64769 0.02331 30888 ft 354 kts 270°
2026-05-05 17:45 39.65164 -0.04033 30912 ft 354 kts 271°
2026-05-05 17:46 39.65562 -0.10400 30907 ft 353 kts 271°
2026-05-05 17:46 39.65961 -0.16754 30901 ft 353 kts 271°
2026-05-05 17:47 39.66351 -0.23105 30897 ft 353 kts 271°
2026-05-05 17:47 39.66734 -0.29450 30892 ft 353 kts 271°
2026-05-05 17:48 39.66990 -0.33695 30874 ft 353 kts 271°